Location: ???
(35.5616°N, 139.7977°E)
Time: 03:00:42
(UTC+00:00)

Cosmos 2369 Rocket - Pass Details

Date: 17 November 2025
Orbit: 826 x 853 km, 71.0° (Epoch: 09 December)

Event Time Altitude Azimuth Distance (km) Brightness Sun altitude
Exits shadow 20:10:17 - 336° (NNW) 3,000 4.7 -14.1°
Reaches altitude 10° 20:11:39 10° 335° (NNW) 2,479 4.3 -13.8°
Maximum altitude 20:17:20 75° 251° (WSW) 884 2.2 -12.7°
Drops below altitude 10° 20:23:00 10° 167° (SSE) 2,471 5.0 -11.6°
Sets 20:25:27 0° 165° (SSE) 3,403 5.8 -11.1°
